Wind_Speed
23 21 16 16 16 13 11 13 13 12 11 9 8 7 7 5 5 8 9 9 9 8 8 9 11 13 15 13 13 14 16 17 16 16 19 21 19 18 18 18 18 18 19 19 16 15 15 11 8 7 6 8 8 7 7 6 6 5 4 5 4 4 5 5 5 6 7 8 8 6 6 6 6 6 7 6 7 9 10 10 10 10 10 9 10
23 21 16 13 13 12 12 15 15 14 12 9 9 8 7 6 6 7 8 9 9 9 8 9 10 12 14 13 13 15 17 17 17 16 18 21 20 18 18 18 18 18 18 19 18 17 15 11 9 8 8 8 8 7 8 7 6 5 5 6 6 5 5 5 5 6 6 7 8 7 6 7 6 6 8 7 8 10 9 9 9 10 11 10 9
22 22 19 15 13 12 13 16 17 15 13 10 8 7 7 6 6 7 7 9 9 9 8 9 9 11 12 13 14 16 17 17 17 18 20 21 21 20 19 19 18 19 18 20 20 18 16 13 11 9 8 8 8 8 8 7 7 7 7 7 7 6 6 5 6 7 7 6 7 7 6 7 6 7 8 8 8 8 7 7 8 9 10 10 9
17 18 17 15 13 13 14 16 18 16 14 11 8 6 6 6 6 6 7 8 8 8 7 8 9 10 11 12 14 16 17 17 18 20 21 21 21 21 21 19 19 19 19 20 20 19 17 15 13 10 8 8 9 9 9 8 7 7 7 7 6 6 6 6 6 6 7 6 8 7 6 6 7 7 7 8 8 7 7 7 7 8 9 9 8
11 12 12 12 12 13 15 16 18 18 15 12 9 8 7 6 6 6 7 8 8 7 5 6 7 8 10 12 14 16 17 17 17 19 20 20 20 21 21 19 19 19 20 20 20 19 19 17 15 13 11 10 10 10 9 8 7 6 6 5 5 5 6 6 6 5 6 7 8 8 7 7 7 7 6 7 7 7 7 7 7 8 8 7 7
11 11 12 13 13 14 16 18 19 19 17 13 11 10 9 7 5 6 7 7 7 5 4 5 5 7 9 10 13 16 17 17 17 18 19 18 18 20 20 20 20 20 21 21 20 20 19 17 15 14 13 12 11 10 9 8 6 5 5 5 5 4 5 6 6 6 6 7 8 8 7 7 7 7 6 6 7 7 7 7 7 8 8 7 7
12 12 12 13 13 15 18 19 20 20 18 15 11 10 10 7 6 6 6 6 6 4 3 4 4 6 7 9 12 15 16 16 17 18 19 17 18 21 21 21 22 22 22 21 19 18 18 16 15 14 13 13 12 10 9 8 7 6 6 5 5 5 5 7 8 8 8 7 8 7 7 8 7 7 6 6 6 6 6 7 7 8 8 8 7
12 11 12 12 12 13 15 16 19 21 19 16 12 10 9 8 7 7 7 6 5 3 2 3 4 5 6 8 11 14 15 16 17 19 19 19 20 22 23 23 23 24 22 20 18 17 16 15 14 13 12 13 12 11 10 9 7 7 6 6 6 6 7 8 9 9 8 8 8 6 6 8 7 6 5 4 5 5 6 7 7 7 8 8 8
12 12 12 13 12 13 13 14 17 19 19 17 14 10 10 9 8 8 8 6 5 4 2 2 3 4 7 9 12 14 16 18 19 20 20 20 22 24 24 24 24 24 22 19 18 17 16 14 13 12 12 13 13 12 11 9 8 7 7 7 7 7 8 9 9 9 8 8 8 7 6 7 6 5 4 3 4 4 5 6 6 6 7 8 9
11 11 11 12 10 12 13 13 16 18 19 18 15 11 10 10 9 8 8 6 5 3 2 2 3 3 6 9 12 14 16 19 21 21 21 23 24 25 25 24 24 23 21 19 18 17 15 13 12 12 13 14 14 14 13 10 8 8 7 7 7 7 7 8 8 8 8 7 7 7 7 7 6 5 3 3 4 4 4 5 5 6 6 7 8
9 7 7 8 7 9 10 12 17 18 17 17 15 12 10 10 10 9 9 7 5 3 2 3 3 3 6 8 11 14 14 16 18 20 22 23 24 25 25 24 24 23 21 19 18 17 15 13 12 13 14 15 15 14 13 10 9 8 7 6 7 6 6 7 7 7 7 7 7 7 7 6 6 5 4 4 4 3 4 4 5 5 6 7 6
5 3 2 4 5 7 8 10 14 14 13 15 15 12 10 10 10 10 9 8 5 3 2 3 4 4 6 8 10 13 13 14 15 17 20 21 22 24 24 24 25 23 21 19 18 17 14 13 13 13 14 14 14 14 13 11 9 8 7 7 6 6 6 6 6 7 7 7 7 7 6 6 5 4 3 3 2 2 3 3 4 5 7 7 6
4 4 3 5 5 5 6 7 9 9 12 14 14 13 11 11 10 10 10 9 6 4 3 4 4 5 6 8 10 12 13 14 14 15 17 18 20 23 25 25 25 23 21 20 18 16 14 13 13 13 13 13 13 13 12 10 9 8 8 7 6 7 7 7 7 7 7 7 7 6 6 5 4 3 1 1 1 2 2 2 3 4 6 7 7
5 5 5 4 3 1 2 4 6 8 12 14 14 13 12 12 11 10 10 9 7 5 4 4 4 5 6 8 10 11 13 14 14 15 16 18 20 23 25 24 24 22 21 20 18 16 14 13 12 12 13 13 13 12 11 10 9 9 8 7 7 8 8 7 7 7 7 7 7 6 5 4 3 3 2 1 1 1 2 3 4 5 6 8 8
3 4 4 3 3 3 1 4 6 8 12 14 14 14 14 13 11 10 10 9 8 6 5 5 5 5 6 7 9 11 13 14 15 16 17 18 19 22 23 23 23 22 21 20 18 16 14 13 13 13 13 13 12 11 10 10 9 9 8 8 8 9 8 8 8 8 8 7 7 6 6 4 4 4 3 2 2 2 2 3 5 6 7 8 8
2 3 3 4 4 4 2 4 6 8 11 13 14 14 14 12 10 9 9 9 9 8 7 6 6 6 6 7 9 11 13 14 16 17 18 19 19 20 21 22 23 23 22 21 19 17 16 14 13 13 13 13 12 11 11 11 10 9 8 8 8 8 8 9 9 9 8 8 7 7 6 5 5 5 4 3 3 3 3 3 4 6 6 7 7
1 1 1 2 2 2 2 4 6 8 10 12 13 13 13 12 10 10 10 10 10 10 10 9 8 7 7 8 9 11 12 13 16 18 18 19 19 20 20 21 23 23 24 22 20 18 17 15 14 13 13 13 13 12 12 11 10 9 9 9 8 8 8 9 9 9 9 9 8 8 7 6 6 6 6 5 4 4 5 5 5 5 6 6 7
2 2 2 1 1 1 2 2 4 7 9 11 13 14 14 13 12 12 12 12 13 13 13 12 11 10 9 9 9 11 12 13 15 18 18 19 20 21 22 22 22 23 23 22 21 19 17 15 14 13 13 14 14 14 13 12 10 10 10 9 9 8 9 9 10 9 10 9 8 9 8 7 7 7 7 7 6 6 6 6 5 5 5 5 6
3 3 3 3 3 2 2 3 3 6 8 10 12 13 14 15 15 15 14 15 17 16 14 12 12 11 10 10 11 11 12 13 14 17 18 19 19 21 22 22 22 23 22 22 21 19 17 16 15 14 14 14 14 14 13 12 11 10 10 10 9 10 10 10 11 11 11 10 10 10 9 8 8 8 9 8 8 8 7 5 5 5 6 6 6
4 5 4 4 4 4 3 4 5 7 8 10 11 11 12 14 15 15 15 17 18 17 15 14 14 14 13 13 12 12 13 14 15 16 17 18 19 21 22 22 22 23 22 22 21 19 17 16 16 15 15 15 14 14 13 12 11 11 11 11 11 11 11 11 12 12 11 11 11 11 10 9 9 9 9 9 9 9 7 6 6 7 7 7 8
4 4 5 5 5 5 5 5 6 8 9 10 11 12 13 13 13 13 14 16 17 16 17 17 17 18 17 15 14 14 14 14 15 15 16 17 19 20 22 22 23 22 22 21 20 19 17 16 16 15 15 15 15 15 14 13 12 11 11 12 12 12 12 12 12 12 12 12 11 11 10 10 11 11 10 10 9 9 8 8 9 9 9 8 9
4 4 5 6 7 7 7 6 6 7 9 11 12 14 15 15 14 13 12 13 15 16 18 19 20 20 19 17 17 16 16 16 16 16 16 17 18 19 20 21 22 22 22 21 20 18 17 16 15 14 15 15 16 15 15 14 13 12 13 13 13 13 13 13 12 12 12 11 11 11 12 12 12 12 11 10 9 9 9 10 11 11 10 9 9
5 5 6 8 8 8 8 8 8 8 9 10 12 13 15 16 16 15 13 12 14 16 17 19 21 20 19 19 19 18 19 19 18 17 17 17 18 18 19 20 21 22 22 22 20 19 18 17 15 15 15 14 15 15 16 15 14 14 14 13 13 13 14 13 13 13 13 12 11 12 13 13 12 12 12 11 10 10 11 12 12 11 10 9 8
5 6 7 9 8 8 9 9 9 9 9 10 12 12 13 15 16 17 16 15 15 16 15 15 18 19 19 20 20 21 22 21 19 18 18 18 19 19 19 20 20 21 22 21 20 19 19 18 17 17 17 16 15 15 15 15 15 15 15 14 14 14 14 14 14 14 14 12 11 11 12 12 13 13 12 12 11 11 12 12 11 10 9 9 9
6 7 7 8 8 8 9 9 9 9 9 10 11 12 12 13 15 17 18 17 16 15 14 13 15 19 20 20 20 20 18 16 17 18 19 19 20 20 20 20 20 21 21 21 20 19 19 18 18 18 18 18 16 15 15 15 15 16 16 15 15 14 14 15 15 15 14 13 12 11 12 13 14 14 13 12 12 13 14 13 12 11 10 9 9
6 7 7 6 7 7 8 9 9 9 8 9 9 10 11 12 12 15 17 18 18 16 14 14 15 17 17 17 19 19 15 14 15 18 19 20 21 21 21 21 21 21 21 21 21 21 19 18 17 17 18 19 18 17 17 17 17 17 17 16 16 15 15 16 15 14 14 13 13 12 12 14 15 15 14 13 13 14 15 14 13 12 11 10 10
6 6 6 6 7 6 7 8 9 9 8 8 8 9 10 11 11 12 15 16 18 18 17 17 16 14 12 15 19 20 18 16 17 19 20 20 21 22 22 22 22 22 22 22 22 22 21 20 19 18 18 18 19 19 19 19 19 19 18 18 17 17 17 17 16 15 15 15 14 13 12 12 13 13 14 15 14 13 14 15 14 13 13 12 12
6 6 6 7 6 6 7 8 9 10 9 8 7 7 9 11 11 12 13 14 16 17 18 18 17 15 13 15 19 20 20 20 20 21 23 22 22 23 24 23 23 23 24 24 23 23 22 22 22 21 19 19 19 19 19 19 19 19 18 18 17 17 19 18 16 16 17 16 15 14 13 12 13 13 13 13 13 13 14 15 15 15 14 14 13
6 7 7 6 6 7 8 9 9 10 11 10 9 8 8 9 11 12 13 14 15 16 17 17 17 15 16 17 18 19 20 22 23 24 24 23 24 26 26 25 25 25 25 24 24 24 23 23 23 22 21 21 21 21 20 19 19 19 18 18 18 18 19 18 17 18 18 17 16 15 14 14 14 13 12 12 13 14 15 16 16 16 16 15 15
7 7 7 7 8 8 10 11 10 11 11 11 11 10 8 8 10 12 13 13 14 15 16 16 16 16 17 18 18 18 19 21 23 25 26 27 28 29 28 26 26 26 25 24 24 24 24 23 23 22 22 22 23 22 22 21 20 20 20 20 20 21 20 19 18 18 19 18 18 17 16 15 15 13 12 13 14 15 16 16 16 16 16 16 16
7 7 7 8 9 10 11 11 12 11 11 11 12 11 11 10 10 11 12 13 13 14 14 14 15 16 17 19 19 20 20 21 22 24 27 31 32 29 26 26 26 25 25 25 25 24 24 24 24 23 23 23 24 23 23 23 23 22 22 22 22 23 22 20 18 19 19 19 19 18 16 15 15 14 13 14 13 13 15 15 16 16 16 16 16
8 8 8 9 11 11 12 12 12 12 11 11 11 12 12 12 11 11 11 12 12 13 13 13 14 15 16 18 19 20 21 22 22 22 25 30 32 29 27 27 27 26 25 26 26 26 26 26 26 26 25 24 24 23 23 24 25 25 24 23 24 25 25 22 21 20 20 20 19 18 17 16 15 15 15 15 14 13 13 15 16 16 16 15 15
8 8 10 11 12 12 12 12 13 12 12 12 11 12 12 13 12 11 11 11 12 12 12 12 13 13 15 16 17 19 21 21 22 22 23 26 29 29 29 30 28 27 28 28 27 27 26 27 27 27 26 26 25 24 24 24 24 25 26 26 27 27 25 24 24 23 21 19 19 19 18 18 17 16 17 17 15 14 14 15 16 16 15 15 15
8 9 11 13 13 13 13 12 13 13 13 13 12 12 12 12 13 12 12 12 12 12 12 12 12 12 13 14 15 17 19 21 22 23 23 25 26 27 28 31 30 30 30 31 31 30 28 28 28 28 27 27 26 26 25 24 24 24 25 27 28 27 25 24 24 23 21 20 20 20 20 19 19 18 18 18 16 15 16 17 17 16 16 16 17
9 11 13 14 15 14 13 13 13 13 13 13 12 12 11 12 12 13 13 13 12 12 13 13 12 12 12 13 14 15 17 19 21 23 24 25 26 26 27 29 31 32 33 33 34 33 31 30 30 30 29 29 28 27 26 26 25 24 25 27 27 27 26 24 24 23 22 21 21 22 21 21 20 20 19 19 18 17 17 17 17 17 17 17 18
10 13 14 15 15 15 14 14 14 14 14 13 13 13 12 11 12 13 13 13 13 13 13 13 13 13 13 13 14 14 16 18 20 22 24 25 26 27 27 27 29 32 34 36 36 36 36 36 35 33 32 31 30 28 27 27 27 27 28 29 28 27 26 24 24 23 22 22 22 23 22 22 22 22 21 20 19 18 18 18 18 18 18 18 18
13 15 16 16 15 14 14 14 14 14 14 14 14 14 13 12 11 12 12 12 13 13 13 13 13 14 14 15 16 16 17 18 19 21 22 24 25 27 27 28 28 30 33 36 38 39 40 40 38 37 35 34 32 31 29 29 28 28 29 30 30 29 27 26 25 24 23 23 23 23 23 23 23 23 23 22 21 20 20 20 20 19 19 19 18
15 16 17 16 14 13 13 13 13 14 14 13 14 13 13 12 11 10 10 11 12 13 13 13 13 14 15 16 17 18 18 19 20 21 21 23 24 25 27 28 29 29 31 34 38 41 41 40 39 39 38 38 36 34 33 32 31 30 31 32 32 32 30 28 27 26 25 26 26 26 25 24 24 25 25 24 23 22 22 22 21 20 19 19 17
16 17 17 15 13 12 12 12 13 13 13 12 12 12 12 11 10 9 9 10 11 11 12 13 14 15 16 17 19 19 19 20 20 21 21 22 23 24 26 28 29 30 31 32 35 38 40 41 40 41 41 41 40 39 38 36 35 35 35 35 35 35 33 31 30 29 28 29 29 29 28 27 27 27 26 25 25 25 24 23 22 20 20 19 18
16 16 15 13 12 11 11 11 11 12 12 11 11 10 10 9 8 8 8 9 10 11 12 13 15 15 17 17 18 20 20 20 20 20 21 22 23 24 26 28 29 30 31 32 33 35 37 39 41 42 43 44 44 43 42 41 40 40 40 39 38 36 34 32 31 30 30 30 30 30 30 30 29 28 27 27 26 25 25 24 22 21 20 20 18
14 14 13 12 11 10 11 11 10 10 11 10 9 8 8 7 7 7 8 9 9 10 11 12 13 14 16 16 18 19 20 20 20 20 21 22 23 24 25 27 29 29 29 30 31 32 34 36 38 41 43 45 46 45 44 44 44 43 42 41 39 36 34 34 33 31 31 31 31 32 33 32 30 30 29 28 26 26 27 25 23 21 21 20 18
12 13 13 12 11 11 12 11 9 9 9 8 7 6 6 6 7 7 8 8 8 8 8 9 10 11 12 14 16 18 18 18 18 19 20 22 23 23 24 26 27 28 29 29 29 30 32 33 35 38 40 43 45 44 44 44 44 45 44 41 39 38 37 36 33 31 32 32 32 33 36 34 31 30 29 29 28 26 26 25 23 21 21 19 16
12 13 13 13 13 12 12 11 10 9 8 7 6 5 5 5 6 7 7 6 5 5 6 6 7 7 8 9 12 14 15 15 16 17 19 21 22 22 23 24 25 26 27 27 27 29 30 31 33 34 37 40 41 42 42 42 43 44 43 41 40 40 39 38 36 34 35 36 36 37 38 34 30 31 30 26 23 23 24 25 23 20 19 17 14
13 14 14 14 12 11 11 11 9 8 8 7 6 5 5 5 7 7 6 4 3 3 4 5 5 4 4 4 6 8 10 11 12 13 15 18 20 21 22 23 24 25 25 25 26 27 28 29 30 31 33 36 37 37 37 38 40 41 40 38 37 37 37 38 39 38 39 41 41 41 40 36 30 29 28 24 23 24 22 17 16 15 13 13 12
13 13 13 12 12 11 11 11 9 8 8 7 6 6 5 5 6 7 5 3 1 2 4 5 6 7 6 5 4 3 5 6 8 9 10 12 15 17 20 22 23 23 23 23 24 25 25 26 27 28 30 32 33 33 32 32 34 35 35 35 35 38 39 38 40 44 45 48 52 47 39 35 31 28 28 29 27 24 17 11 9 10 10 10 10
13 12 11 11 11 11 11 10 8 7 7 7 6 5 4 4 6 7 5 3 2 2 4 6 7 8 8 8 7 6 4 3 3 5 6 8 10 12 15 18 19 20 20 20 21 21 21 21 21 22 25 27 29 28 26 26 28 29 30 31 32 34 34 30 36 42 39 43 55 54 39 30 28 24 26 30 27 21 16 12 9 9 10 10 10
13 12 11 11 11 11 10 9 7 6 6 6 5 5 5 5 7 7 6 5 4 3 4 5 7 8 8 8 9 9 9 8 6 4 2 2 4 7 9 11 12 13 13 14 15 14 13 13 11 12 16 21 21 20 18 17 18 20 23 24 21 15 12 10 12 19 23 32 35 38 30 27 25 18 16 20 18 14 12 12 11 11 11 10 9
12 11 11 11 12 11 9 8 7 6 6 5 5 5 5 6 8 8 6 6 5 4 2 3 5 7 8 8 8 10 11 13 12 11 8 6 4 2 2 4 5 5 5 5 6 6 5 6 4 4 7 11 14 15 13 11 11 12 15 18 13 6 11 12 8 10 10 13 16 19 19 19 16 11 10 13 10 10 12 13 12 10 8 5 4
10 10 10 12 12 11 9 7 7 6 6 6 6 6 6 7 8 8 8 6 5 5 3 2 4 6 8 9 9 10 12 13 14 14 12 11 10 9 6 2 3 5 5 6 4 2 2 1 1 1 2 4 8 11 10 8 9 11 12 12 10 9 11 11 9 10 12 11 8 10 11 10 8 8 11 13 12 12 13 12 10 8 6 2 3
9 10 10 12 12 11 9 7 7 6 6 6 6 5 6 7 7 8 9 7 6 6 5 2 2 5 7 8 9 10 12 13 14 14 14 12 12 13 11 9 9 10 12 13 12 11 12 9 4 4 6 3 3 5 6 6 7 9 9 9 8 8 7 6 7 9 10 10 9 9 10 11 12 13 15 15 14 14 15 13 11 9 6 2 4
9 10 11 11 11 10 9 7 6 5 6 6 4 4 5 6 7 8 9 8 8 8 6 4 3 4 6 7 8 10 11 13 14 14 13 12 12 12 14 15 17 17 19 20 21 21 22 19 13 11 12 11 11 14 15 15 14 14 14 14 14 12 11 10 9 8 8 10 11 12 14 15 15 15 15 14 13 13 14 13 11 8 5 4 6
Wind_Direction
241 248 256 259 237 213 228 246 246 251 252 246 244 249 256 265 271 260 257 259 265 277 285 286 280 271 264 250 230 222 219 216 216 217 213 210 209 207 206 207 209 213 213 213 216 216 213 209 206 206 208 212 215 219 220 219 228 236 245 259 273 288 300 314 321 328 339 337 333 343 348 333 328 330 333 338 350 357 357 352 350 350 346 345 351
244 250 255 262 247 221 229 244 249 256 257 252 254 257 258 261 265 258 255 257 259 270 283 286 283 272 263 248 228 221 220 218 216 216 212 209 209 208 208 208 210 213 213 211 216 217 212 209 208 209 208 212 218 225 229 231 237 243 255 267 272 274 284 303 309 309 321 330 329 334 339 331 334 342 338 340 356 3 1 354 347 342 342 343 345
243 247 250 253 252 235 231 241 247 253 256 249 247 253 251 257 268 265 260 259 256 262 273 277 277 270 260 246 231 225 223 219 213 211 210 208 208 209 208 209 211 213 212 211 215 215 211 207 206 207 210 215 223 233 240 242 246 255 262 267 269 269 278 292 296 297 309 320 320 326 336 336 342 350 344 347 356 356 354 352 346 343 343 342 338
241 243 248 248 248 242 235 239 242 249 254 249 245 244 243 253 262 265 264 263 260 259 265 271 269 263 253 241 232 229 227 221 213 208 208 206 204 207 208 209 211 213 213 214 214 213 211 209 210 215 221 226 231 239 246 247 250 256 258 262 267 272 280 287 291 298 305 308 308 316 333 338 340 346 345 346 345 337 338 344 346 348 346 344 344
250 248 251 247 245 247 241 239 241 245 249 250 254 245 240 251 254 257 258 260 262 259 263 271 265 253 241 231 229 228 225 221 215 209 209 206 203 206 208 208 211 214 216 217 214 213 212 211 216 226 233 236 237 239 240 242 247 250 251 258 265 268 275 281 287 292 293 292 295 305 322 329 332 341 343 337 330 324 331 342 346 347 347 348 355
263 258 255 245 239 240 238 238 241 244 245 246 251 244 238 244 247 253 253 255 263 262 265 271 258 242 230 219 219 222 221 220 217 213 214 210 205 208 209 208 211 215 218 217 213 212 212 214 221 228 233 235 236 236 234 235 238 238 239 250 263 269 272 276 279 281 283 284 289 299 312 314 320 332 338 335 328 323 333 344 346 351 356 357 3
262 257 252 244 233 233 237 238 236 237 240 240 240 235 234 241 247 256 259 263 274 270 272 273 250 231 220 207 207 212 214 215 216 214 213 210 207 209 209 207 209 213 214 213 209 208 210 214 220 225 230 231 230 232 233 232 232 236 239 243 258 272 274 276 281 284 285 285 289 296 298 301 314 327 332 337 333 330 341 348 346 356 9 7 8
254 251 250 249 242 240 243 244 237 230 230 233 233 225 227 238 249 261 268 274 283 284 279 268 246 223 211 202 200 203 205 205 210 212 210 207 205 206 205 204 207 210 208 205 201 201 204 210 218 225 231 230 226 227 232 232 229 237 244 247 261 274 273 275 279 281 283 287 292 295 291 298 313 318 318 335 341 337 345 349 351 3 17 18 21
241 241 244 248 250 250 245 244 239 225 218 227 232 220 219 232 247 261 265 268 277 281 268 241 236 218 202 197 196 200 202 199 201 205 206 204 202 202 202 201 203 204 201 199 197 198 202 209 220 229 230 226 223 225 230 231 230 238 244 248 258 268 270 272 274 275 282 287 293 298 296 301 310 307 306 331 339 341 350 349 353 8 18 25 31
230 233 239 243 248 256 248 237 234 221 213 225 230 218 215 226 240 252 251 254 264 266 252 220 217 204 193 192 193 196 201 201 199 198 199 201 201 200 200 198 198 199 196 195 197 198 202 211 221 225 224 223 223 225 228 229 231 239 245 251 258 266 267 267 268 271 279 284 289 296 296 298 306 306 309 317 322 339 360 353 356 14 18 23 35
217 221 239 241 239 248 244 233 232 224 216 221 221 215 215 218 228 242 242 242 249 254 248 221 204 189 187 191 192 193 196 198 197 195 195 199 200 199 198 196 194 194 193 193 195 196 201 210 219 221 221 223 223 225 227 227 231 238 245 256 262 264 262 262 268 271 274 278 278 280 284 291 298 302 309 310 313 339 360 358 358 15 13 8 25
193 188 214 229 226 229 228 229 231 224 215 216 215 216 216 211 223 239 237 230 232 237 233 223 206 184 181 185 188 189 188 189 190 191 192 195 198 197 196 195 193 193 192 190 192 195 201 211 220 224 223 224 224 226 228 226 229 236 240 246 249 256 261 266 274 271 267 270 270 272 277 284 290 299 307 307 326 358 360 1 357 2 0 351 0
146 136 161 199 217 224 225 232 232 221 215 214 215 221 216 212 226 236 230 223 223 221 219 222 209 186 181 181 183 185 183 185 187 186 186 190 193 194 195 195 194 194 192 190 192 197 204 212 221 228 226 223 223 225 228 226 227 230 233 239 245 256 265 268 272 269 263 265 268 270 269 275 291 299 298 309 356 4 344 339 344 348 346 338 343
138 135 150 176 203 267 254 237 232 219 213 210 212 215 211 217 231 229 226 227 224 219 220 223 211 195 192 185 182 183 181 184 186 184 184 187 190 192 193 194 194 195 193 191 195 201 207 213 219 223 222 221 222 223 224 224 224 225 228 237 244 253 262 267 271 268 260 257 258 258 255 264 277 261 250 292 313 317 299 309 325 335 337 334 338
132 120 117 103 70 47 79 205 209 199 196 199 205 208 209 221 230 223 227 235 228 220 221 221 209 198 200 193 186 185 183 183 185 184 184 184 187 190 190 192 193 194 194 195 198 202 207 212 215 216 216 218 220 218 216 218 222 224 230 239 246 250 255 260 264 262 258 255 253 257 263 268 266 253 245 261 289 300 294 307 324 336 339 335 338
79 64 66 54 51 56 100 169 186 184 185 194 203 209 212 219 224 223 232 240 234 224 221 224 217 199 196 197 193 190 187 186 185 184 184 184 187 189 190 192 193 193 196 198 201 202 205 211 214 214 214 214 215 214 213 218 222 227 235 243 248 248 245 248 254 255 256 256 253 256 261 264 268 267 264 265 286 303 299 308 327 338 338 333 336
8 12 40 48 60 71 112 148 166 178 187 196 203 211 215 215 216 222 229 234 235 230 220 218 213 198 195 198 198 197 191 186 186 186 186 187 188 189 191 193 194 194 196 200 203 204 204 210 214 216 215 212 212 212 214 218 221 226 236 243 246 248 246 247 251 252 251 251 251 255 258 262 267 268 266 267 274 282 288 303 322 332 331 329 332
314 316 306 301 239 210 180 168 165 178 192 202 207 213 219 221 223 225 227 227 232 233 227 224 215 197 190 196 198 198 195 188 185 186 188 190 189 190 192 194 195 195 198 201 204 204 205 209 213 218 218 214 212 212 213 218 221 226 233 238 242 244 245 246 250 251 248 246 248 252 255 258 260 262 264 269 273 273 281 301 321 327 326 323 322
306 306 304 303 287 275 232 212 202 196 201 208 214 220 226 230 233 235 235 232 234 235 233 232 226 207 194 195 195 195 194 191 189 188 190 191 189 190 193 195 197 197 201 204 203 204 206 208 211 217 218 217 216 215 215 217 220 225 232 236 238 239 239 242 246 250 249 246 248 252 256 257 255 257 263 269 274 275 281 299 317 318 315 309 302
291 299 302 299 298 294 272 248 236 229 223 218 220 227 231 234 238 240 238 233 234 236 233 229 225 215 205 197 194 195 193 192 193 193 193 192 191 193 195 197 199 201 204 205 203 204 207 208 210 215 218 219 220 218 218 220 220 224 229 230 232 235 236 239 243 247 248 246 245 249 255 258 258 258 261 266 273 279 290 305 310 306 304 301 297
276 293 296 300 309 304 290 274 258 253 249 238 229 230 232 234 238 240 238 233 231 231 230 229 223 215 208 199 194 196 196 194 195 195 195 195 196 196 196 198 200 204 207 205 203 206 209 207 207 211 215 217 220 221 221 221 221 223 227 228 229 232 235 239 242 244 244 243 244 248 250 254 257 257 259 264 273 282 293 301 300 297 296 296 296
283 296 306 318 327 323 313 301 283 267 261 254 244 240 238 237 239 241 242 243 238 229 224 224 223 216 209 203 197 195 197 197 195 195 195 197 199 200 201 201 202 204 205 204 205 210 212 209 209 212 213 214 215 218 219 220 222 225 227 226 226 229 235 240 241 241 241 242 245 245 246 250 254 255 257 259 266 278 287 292 295 295 296 295 295
298 315 324 328 330 326 319 309 300 287 271 264 255 250 247 244 244 243 243 248 248 239 228 222 223 221 215 211 204 198 200 199 195 195 195 196 200 203 206 207 205 205 205 204 207 213 213 213 215 220 222 218 213 213 216 218 219 222 224 225 225 229 234 238 240 241 242 244 248 249 252 256 260 263 263 259 260 270 278 284 291 294 296 298 297
309 323 324 330 328 320 313 302 296 290 280 275 268 261 254 247 246 245 243 245 249 250 244 234 229 227 224 222 216 210 208 201 194 195 197 197 199 201 205 208 208 207 208 208 211 213 212 212 215 220 225 225 219 215 216 217 217 220 224 225 225 228 232 235 238 241 244 249 256 262 265 264 262 265 266 261 260 265 268 274 283 286 289 293 295
307 312 317 326 317 307 304 298 295 290 282 280 275 271 265 254 247 245 244 244 246 250 252 247 242 236 231 231 232 232 226 212 200 200 200 199 200 200 202 207 209 211 211 212 214 216 216 215 216 218 221 223 224 222 221 220 220 222 225 227 227 229 233 237 239 242 248 253 257 260 262 262 261 262 262 259 260 267 272 274 277 279 281 284 288
289 299 309 307 292 290 296 297 301 300 290 284 278 273 269 261 250 244 243 244 244 244 244 243 245 245 239 236 240 243 239 224 214 212 209 206 205 204 203 205 209 213 214 214 214 217 220 222 222 220 216 218 222 225 224 223 223 224 226 228 229 229 233 239 242 244 246 249 253 256 259 261 260 259 261 262 263 270 276 277 276 276 277 278 284
275 290 294 282 278 287 298 302 309 311 304 297 286 277 272 267 258 248 242 242 244 244 243 240 240 244 242 237 238 239 235 225 219 218 218 217 214 211 208 208 210 213 216 217 215 216 219 222 225 224 219 216 218 222 224 224 225 227 228 229 230 231 234 238 241 242 243 244 247 252 257 258 254 254 261 263 262 264 269 272 273 272 271 274 280
272 284 279 274 281 297 302 307 313 312 312 311 299 284 275 270 267 260 250 244 244 245 245 243 242 240 236 231 232 235 235 230 222 219 219 219 219 217 212 211 214 216 218 220 219 219 219 219 220 222 222 222 222 222 224 225 228 231 233 235 235 235 238 239 238 238 239 240 242 247 252 254 254 258 266 268 264 265 270 273 273 272 270 272 278
279 281 277 282 297 303 303 306 312 312 311 314 311 299 285 274 269 265 259 251 247 245 245 245 243 239 234 231 231 233 235 233 227 223 219 216 221 223 217 213 215 218 220 222 223 223 222 221 220 220 220 223 225 226 227 228 230 233 237 240 240 240 242 242 240 240 242 241 241 244 250 256 259 264 273 277 274 273 273 273 274 272 271 274 279
282 282 285 299 307 307 306 306 309 310 309 311 313 308 297 283 272 268 264 258 253 249 247 246 243 237 234 235 236 235 235 234 231 227 222 219 223 226 222 217 217 220 221 223 224 226 227 225 224 223 222 222 224 227 229 230 230 232 236 239 241 242 243 243 240 241 245 245 245 245 248 254 260 266 273 277 277 277 277 278 277 273 270 271 276
280 290 300 309 312 311 309 307 306 307 306 307 309 307 302 291 279 272 268 265 261 256 253 249 245 240 236 235 235 236 234 234 234 233 230 227 228 228 226 224 224 225 225 224 224 226 228 228 227 226 224 224 225 227 230 232 233 233 235 238 241 242 243 243 241 242 245 247 248 249 251 254 261 266 267 268 272 278 281 282 281 275 271 271 274
289 303 311 314 313 311 308 306 305 304 302 302 305 304 302 296 287 278 270 267 265 261 256 253 248 244 241 237 235 236 237 235 236 237 235 233 233 231 228 228 228 228 230 229 227 226 227 228 229 230 229 228 228 228 231 234 235 237 238 239 241 242 241 239 237 236 241 245 248 250 252 256 259 260 260 263 271 278 280 280 278 274 273 273 274
293 304 311 313 310 309 308 306 303 302 300 301 302 302 300 296 289 282 273 266 263 261 259 255 251 247 244 241 237 236 238 238 236 236 235 235 236 233 231 230 229 228 230 233 232 230 228 228 231 235 235 233 231 229 229 232 235 238 240 241 243 245 246 246 244 239 236 241 246 250 252 255 256 258 261 265 269 272 274 276 276 276 276 276 277
288 301 308 308 307 307 309 306 301 301 301 300 302 302 297 292 286 281 274 267 263 262 262 261 258 253 249 246 242 237 236 237 237 236 235 235 237 236 234 232 230 229 230 232 233 233 231 231 234 237 238 237 236 233 232 232 234 236 240 244 247 249 251 254 255 249 241 240 245 249 252 253 253 256 259 263 265 268 272 275 277 279 280 279 279
283 299 304 305 308 310 310 307 303 303 301 299 301 299 292 286 281 277 272 268 264 263 264 265 264 261 257 253 250 243 238 237 236 235 235 235 236 236 235 234 232 230 230 230 232 232 232 232 234 236 237 237 237 237 237 238 238 239 242 246 249 249 249 251 254 252 246 243 246 249 251 252 254 256 257 259 262 266 269 271 273 277 279 279 278
288 299 304 307 310 313 312 308 305 303 300 298 296 292 287 281 275 271 270 267 264 262 262 262 262 263 262 260 257 253 247 243 240 237 235 235 235 235 235 235 234 232 231 231 232 232 232 231 231 232 233 235 236 236 238 240 240 240 242 245 247 248 248 247 247 246 245 245 246 248 250 252 254 257 260 262 264 265 265 266 269 274 276 276 276
297 302 307 310 312 314 310 304 301 299 296 295 292 288 284 277 269 267 267 265 263 261 260 261 262 263 263 263 261 258 253 249 247 244 241 238 237 235 234 234 233 232 232 232 232 233 234 233 231 231 231 232 234 236 237 238 239 239 241 243 244 246 246 246 246 245 244 244 245 247 250 251 253 256 260 261 263 264 264 266 270 273 273 274 274
303 305 307 308 312 313 305 299 299 297 294 292 289 284 281 275 267 262 261 262 262 261 261 262 263 264 265 266 265 262 257 251 247 245 244 242 240 237 235 234 234 234 234 233 233 234 235 236 235 235 233 233 234 235 236 237 238 240 241 241 243 245 244 244 246 246 245 244 246 249 249 249 252 256 258 260 262 263 264 267 271 272 273 273 271
303 302 303 307 313 311 303 302 302 298 296 292 287 282 276 270 263 257 255 257 259 260 261 263 265 267 268 268 267 265 260 254 248 243 241 240 240 239 237 235 235 235 237 237 235 235 235 235 235 236 236 235 234 234 235 235 237 240 241 241 242 242 241 241 243 245 246 246 247 249 250 250 252 253 256 259 262 263 265 268 270 270 271 269 263
300 299 301 307 312 307 303 305 301 297 296 293 287 281 271 259 253 251 252 254 255 257 260 264 267 269 269 268 266 263 261 257 250 243 239 237 237 238 237 236 236 236 237 237 237 236 236 236 236 237 237 237 236 235 236 236 237 239 240 241 242 243 243 243 242 243 244 246 248 249 250 250 250 252 254 257 259 262 265 267 267 267 267 262 255
297 298 301 306 311 309 307 306 300 295 294 291 289 281 265 252 245 244 248 251 253 258 264 268 272 272 271 268 265 262 260 256 250 244 239 236 236 237 237 237 237 237 237 238 237 237 237 237 237 237 238 239 239 237 237 237 237 239 242 243 245 246 247 246 244 244 245 247 248 251 251 249 249 251 252 255 259 262 263 261 260 260 258 252 245
295 295 299 308 315 313 311 308 302 297 295 294 293 285 267 252 238 235 241 245 251 264 275 280 281 277 272 270 266 264 263 259 253 246 241 238 238 238 238 238 238 239 239 239 238 237 237 238 238 238 239 241 242 240 240 240 240 241 242 244 246 246 246 245 244 244 246 248 248 250 250 248 248 252 254 254 257 261 263 260 252 245 240 235 231
295 299 307 314 317 314 309 305 303 303 300 295 291 283 269 250 232 227 229 236 255 285 302 307 301 292 284 277 270 267 266 263 258 250 244 242 241 240 238 238 238 239 239 240 240 239 239 239 240 241 242 244 245 243 242 242 244 243 243 245 246 246 246 249 250 249 249 248 246 248 249 247 246 251 254 253 253 257 261 258 243 226 219 220 220
302 308 313 314 312 308 303 302 304 307 304 296 283 270 261 245 228 218 215 229 269 326 345 349 350 347 337 313 288 277 270 265 261 254 247 245 244 242 239 238 238 240 241 243 243 243 244 244 244 245 246 248 249 247 242 241 244 246 246 247 248 248 248 249 251 253 253 250 245 243 245 245 243 245 251 256 258 252 245 233 215 202 206 216 215
310 313 312 310 309 307 303 303 306 303 297 289 273 258 253 243 225 209 199 214 261 27 30 31 40 44 40 31 8 321 284 269 262 256 249 245 244 243 241 239 239 242 244 247 248 248 247 247 247 247 248 249 250 251 247 243 242 246 250 252 251 250 248 250 255 255 253 251 249 243 237 239 242 244 248 249 244 232 219 201 192 199 208 214 209
314 313 311 311 310 308 305 302 300 290 281 279 268 254 247 236 220 208 195 185 153 68 54 54 53 50 47 43 39 35 18 332 291 271 257 247 241 240 241 241 241 242 243 247 251 253 253 253 254 256 255 252 250 251 251 246 241 241 246 250 250 244 239 246 256 248 226 217 228 232 230 233 237 237 238 231 214 204 217 231 221 206 201 202 202
315 313 313 313 310 307 301 296 292 281 272 273 269 254 236 214 206 205 197 180 158 111 71 62 51 45 42 39 42 50 54 53 47 35 7 265 237 232 233 236 238 239 239 241 246 253 257 258 264 268 258 250 248 250 251 246 239 235 236 243 252 242 198 182 234 228 178 162 189 209 212 216 213 204 213 216 196 185 206 207 186 183 190 190 186
314 312 312 312 310 305 295 291 293 287 277 275 273 259 232 208 199 197 190 178 169 154 106 60 42 38 35 33 43 56 62 62 59 55 54 62 79 103 184 221 221 218 222 231 240 248 250 253 268 280 253 240 242 249 253 244 232 224 223 232 244 215 163 160 188 218 184 147 153 167 176 193 198 191 206 211 189 169 177 173 168 175 173 161 174
308 306 307 310 310 305 295 295 301 296 286 278 271 255 226 207 201 192 180 170 174 179 163 74 36 35 33 34 46 57 60 60 58 54 54 61 74 79 79 100 138 130 109 93 92 104 102 104 241 191 192 235 243 243 241 230 220 217 214 214 209 191 197 218 240 239 229 219 194 173 177 191 199 196 192 183 167 163 164 156 143 131 116 112 261
301 302 307 311 311 306 299 301 307 300 283 269 259 242 211 196 191 185 177 166 166 176 174 142 59 47 41 41 50 57 59 59 59 56 52 54 68 82 90 97 101 103 101 97 96 97 93 84 80 122 127 139 206 203 185 175 188 198 192 185 184 185 198 227 241 233 224 219 209 194 180 170 165 162 157 155 159 164 158 144 131 125 131 194 275
301 304 309 312 312 307 299 299 302 287 264 252 241 216 186 174 170 174 175 165 157 159 159 145 108 73 62 61 66 67 68 68 68 68 63 58 65 84 97 100 98 97 98 98 96 93 91 87 83 92 107 116 119 118 120 123 124 124 123 121 120 118 112 110 119 136 140 140 145 148 144 141 144 145 145 149 154 154 148 143 142 148 176 239 278
Height
3177 3178 3179 3179 3179 3178 3179 3180 3181 3183 3184 3185 3186 3186 3187 3187 3187 3186 3186 3186 3186 3185 3185 3185 3185 3185 3185 3186 3187 3188 3189 3190 3191 3193 3194 3196 3198 3199 3201 3202 3204 3205 3207 3209 3210 3211 3213 3214 3214 3215 3216 3216 3217 3218 3218 3218 3218 3218 3218 3218 3218 3217 3217 3216 3215 3215 3214 3213 3213 3213 3212 3212 3211 3211 3210 3208 3207 3206 3204 3202 3201 3200 3200 3199 3197
3175 3177 3178 3178 3178 3178 3178 3179 3180 3182 3183 3184 3185 3185 3186 3186 3186 3186 3186 3186 3185 3185 3184 3184 3184 3184 3183 3184 3185 3186 3188 3189 3190 3191 3192 3194 3196 3198 3199 3201 3203 3204 3206 3208 3209 3211 3212 3213 3214 3215 3216 3216 3216 3217 3218 3218 3218 3218 3218 3218 3217 3217 3217 3216 3215 3215 3214 3213 3213 3212 3212 3212 3211 3210 3209 3208 3207 3205 3204 3202 3201 3200 3200 3198 3197
3174 3176 3177 3177 3177 3177 3178 3179 3179 3180 3182 3183 3184 3185 3185 3185 3185 3184 3184 3185 3185 3184 3184 3183 3183 3183 3182 3182 3183 3184 3186 3187 3188 3189 3190 3193 3195 3197 3198 3200 3202 3203 3205 3207 3209 3210 3211 3212 3214 3215 3215 3215 3216 3217 3217 3217 3217 3217 3217 3217 3217 3216 3216 3215 3215 3215 3214 3213 3212 3212 3211 3211 3210 3210 3209 3207 3206 3205 3204 3203 3202 3201 3200 3198 3197
3174 3175 3175 3176 3176 3176 3177 3178 3179 3179 3180 3182 3183 3184 3184 3184 3184 3183 3183 3183 3183 3183 3183 3183 3182 3182 3182 3182 3182 3183 3184 3185 3186 3187 3189 3191 3194 3195 3197 3199 3201 3202 3204 3206 3208 3209 3210 3212 3213 3214 3215 3215 3215 3216 3216 3216 3217 3217 3216 3216 3216 3216 3215 3215 3214 3214 3214 3213 3212 3212 3211 3210 3210 3209 3208 3207 3206 3205 3204 3203 3202 3201 3200 3198 3197
3172 3173 3173 3173 3174 3175 3177 3178 3178 3178 3179 3181 3181 3182 3182 3183 3183 3182 3182 3182 3182 3182 3182 3181 3181 3181 3181 3181 3182 3182 3183 3184 3185 3186 3188 3190 3193 3194 3196 3198 3200 3201 3203 3205 3207 3208 3210 3211 3212 3213 3214 3214 3215 3215 3216 3216 3216 3216 3216 3215 3215 3215 3215 3214 3214 3214 3213 3213 3213 3212 3211 3210 3210 3209 3209 3208 3207 3206 3205 3204 3202 3201 3200 3199 3197
3171 3171 3172 3172 3173 3175 3176 3176 3177 3177 3179 3179 3180 3180 3181 3181 3181 3181 3181 3181 3181 3181 3180 3180 3180 3180 3180 3181 3181 3181 3182 3184 3185 3186 3187 3189 3191 3193 3195 3197 3199 3200 3202 3204 3206 3207 3209 3210 3212 3213 3213 3214 3214 3214 3215 3215 3215 3215 3215 3215 3215 3214 3214 3214 3214 3214 3213 3213 3212 3211 3211 3210 3210 3209 3209 3208 3207 3206 3205 3204 3203 3201 3200 3199 3197
3170 3170 3171 3171 3173 3174 3175 3175 3175 3175 3177 3178 3178 3179 3179 3179 3179 3179 3180 3180 3180 3179 3179 3179 3179 3179 3179 3180 3180 3181 3182 3183 3184 3186 3187 3188 3190 3192 3194 3196 3198 3200 3202 3204 3205 3207 3208 3209 3211 3212 3212 3213 3213 3214 3214 3214 3215 3215 3214 3214 3214 3214 3214 3213 3213 3213 3213 3212 3212 3211 3210 3210 3210 3209 3209 3208 3207 3206 3205 3204 3203 3201 3200 3199 3197
3169 3169 3170 3170 3171 3172 3174 3174 3173 3173 3175 3176 3177 3178 3178 3177 3177 3177 3178 3178 3178 3177 3177 3177 3177 3177 3178 3178 3179 3180 3181 3182 3183 3185 3186 3188 3189 3191 3193 3195 3197 3199 3201 3203 3204 3206 3207 3209 3210 3210 3211 3212 3212 3213 3213 3213 3214 3214 3214 3213 3213 3213 3213 3213 3212 3212 3212 3211 3211 3210 3210 3210 3210 3209 3209 3208 3207 3205 3204 3204 3203 3201 3200 3199 3198
3168 3168 3169 3169 3169 3170 3171 3173 3173 3173 3173 3174 3175 3176 3176 3176 3176 3176 3176 3176 3176 3176 3176 3176 3176 3176 3176 3177 3178 3180 3180 3181 3181 3183 3185 3187 3188 3190 3192 3194 3196 3199 3200 3202 3203 3205 3207 3208 3208 3209 3210 3210 3211 3212 3212 3212 3213 3213 3213 3213 3213 3212 3212 3212 3212 3211 3211 3210 3210 3210 3210 3209 3209 3209 3208 3207 3206 3205 3204 3204 3203 3202 3201 3200 3198
3167 3168 3168 3168 3168 3169 3169 3170 3171 3173 3173 3173 3174 3175 3175 3175 3175 3175 3175 3175 3175 3175 3175 3175 3175 3175 3175 3176 3177 3179 3180 3180 3180 3181 3183 3185 3187 3189 3191 3193 3195 3197 3199 3201 3202 3204 3206 3206 3207 3208 3208 3209 3210 3210 3211 3211 3212 3212 3212 3212 3212 3211 3211 3211 3211 3211 3210 3210 3209 3209 3209 3209 3208 3208 3208 3207 3206 3205 3204 3204 3203 3202 3201 3200 3199
3167 3167 3167 3167 3167 3168 3167 3168 3170 3171 3171 3171 3172 3173 3173 3174 3174 3174 3174 3174 3174 3174 3174 3174 3174 3173 3174 3174 3176 3177 3179 3180 3181 3181 3183 3184 3186 3188 3190 3192 3194 3196 3198 3200 3201 3203 3204 3205 3206 3206 3207 3208 3208 3209 3209 3210 3210 3210 3211 3210 3211 3211 3211 3210 3210 3210 3209 3209 3209 3209 3209 3208 3208 3207 3207 3207 3206 3206 3205 3204 3203 3202 3201 3200 3200
3166 3166 3166 3166 3167 3167 3166 3167 3169 3169 3169 3169 3170 3171 3172 3173 3173 3173 3173 3173 3173 3173 3173 3173 3173 3173 3173 3173 3174 3176 3178 3179 3181 3182 3183 3184 3186 3188 3190 3191 3193 3195 3197 3199 3200 3202 3203 3203 3204 3205 3206 3206 3207 3208 3208 3209 3209 3209 3210 3210 3210 3210 3210 3210 3209 3209 3209 3209 3209 3208 3208 3208 3208 3207 3207 3207 3207 3206 3205 3204 3203 3202 3201 3200 3199
3166 3166 3166 3166 3167 3166 3165 3165 3166 3166 3167 3168 3169 3170 3171 3172 3172 3173 3173 3173 3172 3172 3172 3172 3172 3172 3172 3172 3173 3174 3176 3177 3179 3181 3182 3183 3185 3187 3189 3191 3193 3195 3196 3198 3199 3201 3201 3202 3203 3204 3205 3205 3206 3207 3207 3208 3208 3208 3209 3209 3209 3209 3209 3209 3209 3209 3208 3208 3208 3208 3208 3207 3207 3207 3207 3207 3206 3205 3205 3204 3203 3202 3201 3200 3199
3166 3166 3166 3166 3166 3164 3163 3163 3164 3165 3166 3167 3168 3169 3170 3171 3172 3172 3173 3173 3172 3172 3172 3172 3172 3172 3172 3172 3172 3173 3174 3176 3178 3179 3181 3182 3184 3186 3188 3190 3192 3194 3196 3197 3198 3200 3200 3201 3202 3203 3203 3204 3205 3205 3206 3207 3207 3207 3208 3208 3208 3209 3209 3208 3208 3208 3208 3208 3208 3207 3207 3207 3207 3207 3206 3206 3206 3205 3204 3204 3203 3202 3201 3200 3199
3166 3166 3166 3165 3164 3163 3162 3162 3163 3164 3165 3167 3168 3169 3169 3170 3171 3172 3173 3174 3173 3173 3173 3172 3172 3171 3171 3172 3172 3172 3173 3174 3176 3178 3180 3181 3183 3185 3187 3189 3191 3193 3195 3196 3197 3198 3199 3200 3200 3201 3202 3203 3204 3204 3205 3206 3206 3206 3207 3207 3207 3208 3208 3208 3208 3208 3207 3207 3207 3207 3207 3207 3207 3206 3206 3205 3205 3205 3204 3204 3203 3202 3201 3200 3199
3165 3164 3164 3164 3163 3163 3163 3163 3163 3164 3165 3166 3167 3168 3169 3170 3170 3171 3172 3174 3174 3173 3173 3173 3172 3171 3171 3171 3171 3172 3172 3173 3174 3176 3178 3180 3182 3184 3186 3187 3189 3191 3193 3194 3196 3197 3198 3198 3199 3200 3201 3202 3202 3203 3204 3204 3205 3205 3206 3206 3207 3207 3207 3207 3207 3207 3207 3207 3206 3206 3206 3206 3206 3206 3205 3205 3205 3205 3204 3204 3203 3202 3201 3200 3199
3164 3164 3164 3164 3164 3164 3163 3163 3164 3164 3165 3166 3167 3168 3168 3169 3170 3170 3171 3172 3173 3173 3172 3172 3172 3171 3171 3171 3171 3171 3172 3172 3172 3174 3176 3178 3180 3182 3184 3186 3188 3189 3191 3193 3194 3195 3196 3197 3198 3199 3199 3200 3201 3202 3203 3203 3204 3204 3205 3205 3206 3206 3206 3206 3206 3206 3206 3206 3206 3206 3206 3205 3205 3205 3205 3204 3204 3204 3204 3203 3203 3202 3201 3199 3198
3164 3164 3164 3164 3165 3165 3164 3164 3164 3164 3164 3165 3166 3167 3168 3168 3169 3169 3169 3171 3171 3172 3172 3171 3171 3171 3170 3170 3171 3171 3171 3171 3172 3173 3175 3177 3179 3181 3183 3185 3187 3188 3189 3191 3192 3194 3195 3196 3197 3197 3198 3199 3200 3201 3201 3202 3203 3203 3203 3204 3204 3205 3205 3205 3205 3205 3205 3205 3205 3205 3205 3205 3205 3204 3204 3204 3203 3203 3203 3203 3202 3201 3200 3199 3198
3164 3164 3164 3163 3164 3164 3164 3164 3163 3163 3164 3164 3165 3165 3166 3167 3168 3168 3168 3169 3169 3170 3171 3171 3171 3171 3170 3170 3170 3170 3170 3171 3171 3172 3173 3175 3177 3179 3181 3183 3185 3186 3188 3189 3191 3192 3193 3194 3195 3196 3197 3198 3198 3199 3200 3201 3201 3202 3202 3203 3203 3203 3203 3204 3204 3204 3204 3204 3204 3204 3204 3204 3204 3204 3204 3204 3203 3203 3203 3202 3201 3200 3199 3199 3198
3164 3164 3163 3163 3163 3163 3163 3163 3163 3163 3163 3163 3163 3164 3164 3165 3166 3166 3166 3167 3168 3169 3169 3169 3170 3170 3169 3168 3169 3169 3169 3170 3171 3171 3172 3174 3175 3177 3179 3182 3183 3185 3186 3188 3189 3191 3192 3193 3194 3195 3196 3196 3197 3198 3199 3199 3200 3200 3201 3201 3201 3202 3202 3202 3202 3202 3203 3203 3203 3203 3203 3203 3203 3203 3203 3203 3202 3202 3201 3201 3200 3199 3199 3198 3197
3164 3163 3163 3162 3162 3162 3162 3162 3162 3161 3161 3161 3162 3162 3162 3163 3163 3163 3164 3164 3165 3166 3166 3167 3168 3167 3167 3167 3167 3168 3168 3169 3170 3171 3172 3173 3174 3176 3178 3179 3181 3183 3185 3186 3188 3189 3190 3192 3193 3193 3194 3195 3195 3196 3197 3198 3198 3199 3200 3200 3200 3200 3201 3201 3201 3201 3201 3202 3202 3202 3202 3202 3202 3202 3202 3201 3201 3200 3200 3199 3199 3198 3198 3197 3196
3163 3163 3162 3161 3161 3160 3160 3160 3160 3160 3159 3159 3159 3160 3160 3160 3161 3161 3161 3161 3161 3162 3164 3166 3166 3165 3165 3165 3166 3166 3167 3168 3168 3170 3171 3172 3174 3175 3176 3178 3179 3181 3183 3184 3186 3187 3188 3189 3190 3191 3192 3193 3194 3195 3196 3196 3197 3197 3198 3198 3199 3199 3199 3199 3200 3200 3200 3200 3200 3200 3200 3200 3200 3200 3201 3200 3199 3199 3198 3198 3198 3197 3197 3196 3195
3162 3161 3161 3161 3160 3160 3159 3159 3158 3158 3158 3157 3157 3157 3157 3158 3158 3158 3158 3159 3159 3159 3161 3163 3164 3164 3163 3163 3163 3164 3165 3166 3167 3169 3170 3171 3172 3174 3175 3176 3178 3179 3181 3182 3184 3185 3187 3188 3188 3189 3190 3191 3192 3193 3194 3195 3195 3196 3196 3197 3197 3197 3198 3198 3198 3198 3199 3199 3199 3199 3199 3199 3199 3200 3200 3199 3197 3197 3197 3196 3196 3196 3195 3195 3194
3161 3160 3160 3160 3159 3159 3158 3158 3157 3156 3156 3155 3155 3155 3155 3155 3155 3155 3156 3157 3157 3157 3158 3160 3162 3162 3162 3161 3161 3161 3161 3163 3165 3167 3168 3169 3171 3172 3174 3175 3176 3178 3179 3181 3182 3183 3184 3186 3187 3188 3189 3189 3190 3191 3192 3193 3194 3194 3195 3195 3195 3196 3196 3196 3197 3197 3197 3197 3198 3198 3198 3198 3198 3198 3199 3198 3196 3196 3195 3195 3194 3194 3194 3193 3193
3160 3160 3160 3159 3159 3158 3157 3157 3156 3155 3154 3154 3153 3153 3153 3153 3154 3154 3154 3155 3155 3156 3157 3158 3158 3159 3160 3161 3163 3164 3165 3166 3167 3166 3167 3168 3169 3170 3171 3173 3175 3176 3177 3178 3180 3181 3182 3183 3185 3186 3187 3188 3189 3189 3190 3191 3192 3192 3193 3193 3193 3194 3194 3194 3195 3195 3196 3196 3196 3196 3196 3196 3196 3196 3196 3196 3195 3194 3194 3193 3193 3192 3192 3192 3191
3159 3159 3159 3159 3159 3158 3157 3155 3155 3154 3153 3152 3152 3151 3151 3151 3151 3152 3152 3152 3153 3154 3155 3155 3155 3157 3159 3161 3162 3164 3166 3168 3167 3166 3167 3167 3168 3168 3169 3170 3172 3174 3175 3176 3178 3179 3180 3181 3182 3184 3185 3186 3187 3187 3188 3189 3190 3190 3191 3191 3191 3192 3192 3192 3193 3193 3194 3194 3194 3193 3194 3194 3194 3193 3193 3193 3193 3193 3192 3192 3192 3191 3191 3190 3190
3159 3159 3159 3158 3157 3156 3155 3154 3153 3152 3151 3151 3150 3149 3149 3149 3149 3149 3150 3150 3150 3151 3152 3152 3153 3155 3158 3158 3158 3159 3162 3164 3164 3165 3165 3165 3166 3167 3167 3168 3170 3171 3173 3174 3175 3177 3178 3179 3180 3181 3182 3183 3184 3185 3186 3187 3187 3188 3188 3189 3189 3189 3189 3190 3191 3191 3191 3191 3191 3191 3191 3192 3191 3191 3191 3191 3191 3190 3190 3190 3190 3189 3189 3188 3188
3158 3158 3157 3156 3155 3155 3154 3153 3152 3151 3150 3150 3149 3148 3147 3147 3147 3147 3147 3148 3148 3148 3149 3150 3151 3153 3155 3155 3155 3156 3157 3159 3160 3161 3162 3163 3164 3164 3165 3165 3167 3169 3170 3171 3173 3174 3175 3177 3178 3178 3180 3181 3181 3182 3183 3184 3185 3185 3186 3186 3187 3187 3187 3188 3189 3189 3189 3189 3189 3189 3189 3189 3189 3189 3189 3189 3189 3189 3188 3188 3188 3187 3187 3186 3186
3156 3156 3155 3154 3154 3153 3152 3152 3151 3150 3149 3148 3147 3147 3146 3146 3145 3145 3145 3146 3146 3146 3147 3148 3149 3151 3152 3151 3152 3153 3154 3155 3157 3158 3159 3160 3161 3161 3161 3163 3164 3165 3167 3169 3170 3172 3173 3174 3175 3176 3177 3178 3178 3179 3180 3181 3182 3183 3183 3184 3184 3184 3185 3185 3187 3187 3187 3187 3187 3187 3188 3187 3187 3187 3188 3188 3187 3187 3186 3186 3186 3185 3185 3185 3184
3155 3154 3153 3152 3152 3151 3151 3150 3150 3149 3148 3147 3146 3145 3145 3144 3144 3143 3143 3143 3144 3144 3145 3146 3147 3148 3148 3149 3150 3151 3152 3153 3154 3155 3156 3156 3155 3156 3160 3162 3162 3163 3165 3166 3167 3168 3170 3171 3172 3173 3174 3175 3176 3177 3178 3178 3179 3180 3180 3181 3181 3182 3182 3183 3184 3184 3184 3185 3185 3185 3186 3185 3185 3185 3186 3185 3185 3185 3184 3184 3183 3183 3183 3183 3182
3153 3152 3152 3151 3150 3150 3149 3149 3148 3148 3147 3146 3145 3144 3143 3143 3142 3142 3142 3141 3142 3142 3143 3144 3145 3145 3146 3146 3148 3148 3149 3150 3151 3151 3152 3152 3151 3154 3158 3160 3161 3161 3162 3163 3164 3165 3166 3168 3169 3170 3171 3172 3173 3174 3175 3176 3176 3177 3177 3178 3178 3178 3179 3180 3181 3181 3181 3181 3182 3182 3182 3182 3182 3183 3183 3182 3182 3182 3182 3181 3181 3181 3180 3180 3180
3151 3150 3150 3150 3149 3149 3148 3148 3147 3146 3146 3145 3144 3143 3142 3141 3141 3140 3140 3140 3140 3140 3141 3141 3142 3143 3143 3144 3145 3146 3146 3147 3148 3148 3149 3148 3148 3152 3155 3156 3158 3160 3160 3161 3161 3161 3162 3164 3165 3167 3168 3169 3170 3171 3172 3173 3173 3174 3174 3175 3174 3174 3174 3175 3176 3177 3177 3178 3178 3179 3179 3179 3180 3180 3180 3180 3180 3180 3179 3179 3179 3178 3178 3178 3177
3149 3149 3149 3148 3148 3147 3147 3146 3146 3145 3144 3143 3143 3142 3141 3140 3139 3139 3138 3138 3138 3138 3138 3139 3140 3140 3140 3141 3142 3143 3143 3144 3144 3145 3145 3145 3146 3149 3151 3152 3154 3156 3156 3157 3158 3159 3159 3160 3162 3163 3164 3166 3167 3168 3169 3170 3170 3171 3171 3171 3171 3171 3171 3172 3173 3174 3174 3175 3175 3176 3176 3177 3177 3178 3177 3177 3178 3178 3177 3177 3177 3176 3176 3175 3175
3148 3148 3148 3147 3146 3146 3145 3145 3144 3143 3143 3142 3141 3140 3139 3138 3137 3137 3136 3136 3136 3136 3137 3137 3137 3138 3138 3138 3139 3140 3140 3140 3141 3141 3142 3142 3143 3145 3146 3148 3149 3151 3152 3153 3154 3155 3156 3157 3158 3159 3160 3162 3163 3164 3165 3166 3167 3168 3168 3168 3168 3169 3170 3171 3172 3172 3173 3172 3173 3173 3173 3174 3175 3175 3175 3175 3175 3175 3175 3174 3174 3174 3173 3173 3173
3148 3147 3146 3145 3145 3144 3144 3143 3142 3141 3141 3140 3140 3139 3138 3137 3136 3135 3134 3134 3135 3135 3135 3135 3135 3135 3135 3136 3136 3137 3137 3137 3137 3138 3138 3139 3140 3141 3142 3143 3145 3146 3147 3148 3149 3151 3152 3152 3153 3155 3156 3157 3159 3161 3162 3163 3164 3165 3165 3164 3165 3166 3167 3168 3169 3169 3170 3170 3170 3170 3171 3171 3171 3172 3172 3172 3173 3173 3172 3172 3171 3171 3171 3171 3170
3146 3146 3145 3144 3143 3143 3142 3141 3140 3140 3139 3138 3138 3137 3136 3135 3134 3133 3133 3133 3133 3133 3133 3133 3133 3133 3133 3133 3133 3134 3134 3134 3134 3134 3135 3135 3136 3137 3138 3139 3140 3141 3142 3143 3144 3146 3146 3146 3148 3150 3151 3153 3155 3156 3158 3159 3160 3161 3161 3160 3161 3162 3164 3165 3165 3166 3166 3167 3167 3167 3168 3168 3168 3168 3169 3169 3170 3170 3169 3169 3169 3169 3169 3168 3168
3145 3144 3143 3143 3142 3142 3140 3139 3139 3138 3137 3136 3136 3135 3134 3133 3132 3131 3131 3131 3131 3131 3131 3131 3131 3131 3131 3130 3130 3130 3131 3131 3131 3131 3132 3132 3133 3133 3134 3134 3135 3136 3137 3138 3139 3140 3140 3142 3144 3145 3147 3148 3150 3151 3153 3154 3155 3156 3156 3156 3157 3158 3160 3161 3162 3163 3163 3164 3164 3164 3165 3165 3165 3165 3166 3166 3166 3167 3167 3166 3167 3167 3166 3166 3166
3143 3142 3141 3141 3141 3140 3139 3138 3137 3136 3135 3134 3133 3133 3132 3131 3130 3129 3129 3129 3129 3129 3129 3129 3129 3129 3128 3127 3127 3127 3127 3127 3128 3128 3128 3129 3129 3130 3130 3131 3131 3132 3133 3134 3134 3135 3136 3139 3141 3142 3143 3144 3145 3147 3148 3150 3151 3151 3152 3152 3153 3154 3155 3157 3158 3159 3160 3161 3161 3161 3161 3161 3162 3162 3162 3163 3163 3164 3164 3164 3164 3164 3164 3163 3163
3141 3140 3139 3139 3139 3138 3137 3136 3135 3134 3133 3132 3131 3130 3129 3129 3128 3128 3127 3127 3127 3127 3127 3127 3126 3126 3125 3125 3124 3123 3123 3124 3124 3124 3125 3125 3126 3126 3127 3127 3128 3128 3129 3129 3130 3130 3132 3134 3136 3137 3138 3139 3140 3142 3143 3145 3146 3146 3147 3147 3148 3149 3151 3153 3155 3156 3157 3158 3158 3158 3158 3158 3158 3159 3159 3159 3160 3160 3160 3161 3161 3161 3160 3160 3161
3140 3138 3138 3138 3138 3136 3135 3134 3133 3132 3131 3130 3129 3128 3127 3127 3126 3126 3126 3126 3126 3126 3126 3125 3124 3124 3123 3122 3121 3120 3120 3120 3120 3121 3121 3122 3122 3123 3123 3123 3124 3124 3125 3125 3126 3126 3128 3129 3131 3132 3132 3133 3134 3136 3138 3139 3141 3141 3141 3143 3144 3145 3147 3149 3151 3152 3153 3154 3154 3154 3154 3154 3155 3155 3156 3156 3156 3157 3157 3157 3158 3158 3157 3157 3157
3137 3136 3136 3136 3136 3135 3134 3133 3132 3130 3129 3128 3127 3126 3126 3125 3125 3125 3125 3125 3125 3125 3124 3124 3123 3121 3120 3119 3118 3117 3117 3117 3117 3118 3118 3118 3119 3119 3119 3120 3120 3121 3121 3122 3122 3123 3124 3125 3126 3126 3126 3126 3127 3129 3131 3133 3135 3136 3137 3139 3141 3142 3144 3145 3147 3148 3149 3149 3150 3150 3149 3149 3150 3151 3152 3152 3153 3153 3153 3153 3154 3154 3154 3154 3154
3136 3135 3135 3134 3134 3133 3132 3131 3130 3128 3127 3127 3126 3125 3124 3124 3124 3124 3124 3124 3124 3124 3123 3122 3121 3119 3118 3117 3116 3115 3114 3114 3114 3115 3115 3115 3116 3116 3116 3116 3117 3118 3118 3119 3119 3120 3120 3120 3121 3121 3121 3121 3122 3125 3128 3129 3131 3132 3133 3136 3138 3139 3140 3140 3141 3142 3143 3144 3145 3145 3143 3144 3146 3147 3148 3149 3150 3150 3150 3150 3150 3150 3151 3151 3152
3134 3133 3133 3132 3132 3131 3130 3129 3128 3127 3126 3125 3124 3124 3123 3123 3123 3123 3123 3123 3123 3123 3122 3120 3119 3118 3116 3115 3114 3113 3112 3111 3111 3112 3112 3112 3112 3113 3113 3114 3114 3115 3115 3116 3116 3117 3117 3117 3117 3118 3118 3117 3118 3122 3124 3126 3126 3128 3129 3132 3134 3135 3136 3136 3136 3137 3138 3138 3139 3139 3139 3140 3142 3143 3144 3145 3146 3147 3148 3147 3146 3147 3148 3150 3150
3132 3132 3131 3131 3130 3129 3128 3127 3126 3125 3124 3124 3123 3123 3123 3122 3122 3123 3123 3123 3123 3122 3121 3119 3118 3116 3115 3114 3112 3111 3110 3109 3109 3109 3109 3109 3110 3110 3111 3111 3112 3112 3113 3113 3114 3114 3114 3114 3115 3115 3115 3115 3115 3117 3121 3122 3122 3124 3126 3129 3131 3132 3133 3133 3133 3133 3132 3131 3131 3132 3134 3136 3138 3140 3141 3143 3144 3144 3144 3144 3144 3145 3147 3149 3150
3131 3131 3130 3129 3128 3127 3126 3125 3125 3124 3123 3123 3122 3122 3122 3122 3122 3122 3122 3122 3122 3121 3120 3119 3118 3116 3115 3113 3112 3111 3109 3108 3108 3107 3107 3107 3108 3108 3108 3109 3109 3110 3110 3111 3111 3111 3111 3112 3112 3113 3113 3113 3112 3114 3117 3120 3120 3121 3123 3125 3127 3128 3127 3129 3129 3128 3125 3121 3120 3123 3128 3131 3135 3137 3138 3138 3139 3140 3141 3141 3143 3145 3147 3148 3149
3130 3129 3129 3128 3127 3126 3125 3124 3124 3123 3122 3122 3121 3121 3121 3121 3121 3122 3122 3122 3122 3121 3120 3119 3118 3117 3115 3114 3113 3111 3110 3109 3108 3107 3107 3106 3106 3107 3107 3107 3107 3107 3108 3108 3108 3109 3109 3110 3110 3110 3110 3111 3111 3111 3114 3117 3118 3119 3121 3123 3122 3120 3121 3124 3125 3122 3117 3109 3104 3109 3121 3127 3130 3133 3134 3134 3134 3136 3138 3140 3143 3145 3146 3147 3148
3128 3128 3127 3127 3126 3125 3124 3123 3123 3122 3121 3121 3120 3120 3120 3120 3121 3121 3122 3122 3121 3121 3120 3119 3118 3117 3116 3115 3113 3112 3111 3109 3108 3107 3107 3106 3106 3106 3106 3106 3106 3106 3107 3107 3107 3108 3108 3108 3109 3108 3107 3109 3110 3110 3112 3114 3115 3117 3119 3120 3120 3117 3118 3121 3123 3122 3121 3113 3102 3105 3118 3124 3125 3128 3132 3133 3134 3135 3137 3140 3142 3144 3145 3145 3146
3127 3126 3126 3125 3125 3124 3123 3123 3122 3121 3120 3120 3120 3119 3119 3120 3120 3121 3121 3122 3122 3121 3121 3120 3119 3118 3117 3116 3114 3113 3112 3111 3110 3109 3108 3107 3106 3106 3106 3106 3105 3105 3106 3106 3106 3107 3107 3107 3107 3107 3107 3108 3109 3110 3111 3112 3114 3116 3116 3117 3118 3118 3119 3121 3122 3124 3127 3124 3116 3115 3120 3123 3124 3127 3131 3133 3134 3135 3137 3140 3141 3142 3143 3144 3145
3126 3125 3125 3124 3124 3123 3122 3122 3121 3120 3120 3119 3119 3119 3119 3119 3120 3120 3121 3122 3122 3121 3121 3121 3120 3119 3118 3117 3116 3114 3113 3112 3111 3110 3109 3109 3108 3107 3106 3106 3106 3106 3106 3106 3107 3107 3106 3107 3107 3107 3107 3108 3109 3109 3110 3111 3112 3113 3114 3114 3116 3118 3119 3120 3121 3122 3124 3124 3122 3122 3123 3125 3126 3128 3130 3132 3134 3136 3137 3139 3140 3142 3143 3144 3145
3125 3124 3124 3123 3123 3122 3121 3121 3120 3120 3119 3119 3118 3118 3118 3119 3120 3120 3121 3122 3122 3122 3122 3121 3121 3120 3119 3118 3117 3116 3115 3114 3113 3112 3112 3111 3110 3109 3108 3108 3107 3107 3107 3108 3108 3108 3107 3107 3108 3107 3107 3109 3109 3109 3110 3111 3112 3112 3113 3115 3116 3117 3118 3119 3119 3120 3121 3122 3122 3123 3124 3126 3127 3129 3130 3133 3135 3136 3137 3139 3140 3142 3143 3144 3145
3124 3123 3123 3122 3122 3121 3121 3120 3120 3119 3119 3119 3118 3118 3118 3118 3119 3120 3121 3121 3122 3122 3122 3122 3122 3121 3120 3120 3119 3118 3117 3116 3116 3115 3114 3114 3113 3112 3111 3111 3110 3110 3110 3110 3110 3109 3109 3110 3110 3110 3109 3110 3110 3111 3111 3113 3113 3114 3115 3116 3116 3117 3118 3120 3120 3120 3121 3121 3123 3124 3125 3127 3129 3130 3132 3134 3136 3137 3139 3140 3141 3143 3143 3143 3144